Time,TemperatureF,DewpointF,PressureIn,WindDirection,WindDirectionDegrees,WindSpeedMPH,WindSpeedGustMPH,Humidity,HourlyPrecipIn,Conditions,Clouds,dailyrainin,SoftwareType,DateUTC
2015-08-01 00:02:00,78.2,65.0,29.91,West,264,1.0,2.0,63,0.00,,,0.00,weatherlink.com 1.10,2015-08-01 04:02:00,
2015-08-01 00:17:00,77.5,64.0,29.91,West,263,0.0,2.0,63,0.00,,,0.00,weatherlink.com 1.10,2015-08-01 04:17:00,
2015-08-01 00:32:00,76.7,64.0,29.91,West,263,1.0,1.0,66,0.00,,,0.00,weatherlink.com 1.10,2015-08-01 04:32:00,
2015-08-01 00:47:00,75.9,64.0,29.91,West,277,0.0,4.0,67,0.00,,,0.00,weatherlink.com 1.10,2015-08-01 04:47:00,
2015-08-01 01:02:00,75.6,64.0,29.92,West,270,0.0,2.0,68,0.00,,,0.00,weatherlink.com 1.10,2015-08-01 05:02:00,
2015-08-01 01:17:00,75.0,64.0,29.92,West,270,0.0,1.0,69,0.00,,,0.00,weatherlink.com 1.10,2015-08-01 05:17:00,
2015-08-01 01:32:00,74.5,64.0,29.92,West,270,0.0,1.0,70,0.00,,,0.00,weatherlink.com 1.10,2015-08-01 05:32:00,
2015-08-01 01:47:00,74.1,64.0,29.92,West,270,0.0,2.0,71,0.00,,,0.00,weatherlink.com 1.10,2015-08-01 05:47:00,
2015-08-01 02:02:00,73.9,64.0,29.92,WSW,253,0.0,3.0,72,0.00,,,0.00,weatherlink.com 1.10,2015-08-01 06:02:00,
2015-08-01 02:17:00,74.0,63.0,29.92,WSW,241,0.0,4.0,68,0.00,,,0.00,weatherlink.com 1.10,2015-08-01 06:17:00,
2015-08-01 02:32:00,74.5,61.0,29.92,WSW,252,1.0,4.0,64,0.00,,,0.00,weatherlink.com 1.10,2015-08-01 06:32:00,
2015-08-01 02:47:00,74.4,62.0,29.92,WSW,243,0.0,1.0,66,0.00,,,0.00,weatherlink.com 1.10,2015-08-01 06:47:00,
2015-08-01 03:02:00,73.8,62.0,29.92,WSW,243,0.0,1.0,66,0.00,,,0.00,weatherlink.com 1.10,2015-08-01 07:02:00,
2015-08-01 03:17:00,73.5,62.0,29.92,WSW,243,0.0,1.0,67,0.00,,,0.00,weatherlink.com 1.10,2015-08-01 07:17:00,
2015-08-01 03:32:00,73.0,62.0,29.91,WSW,243,0.0,0.0,69,0.00,,,0.00,weatherlink.com 1.10,2015-08-01 07:32:00,
2015-08-01 03:47:00,72.3,62.0,29.91,WSW,243,0.0,1.0,70,0.00,,,0.00,weatherlink.com 1.10,2015-08-01 07:47:00,
2015-08-01 04:02:00,71.6,62.0,29.91,WSW,243,0.0,1.0,72,0.00,,,0.00,weatherlink.com 1.10,2015-08-01 08:02:00,
2015-08-01 04:17:00,71.0,62.0,29.91,WSW,243,0.0,1.0,73,0.00,,,0.00,weatherlink.com 1.10,2015-08-01 08:17:00,
2015-08-01 04:32:00,70.4,62.0,29.91,WSW,243,0.0,1.0,74,0.00,,,0.00,weatherlink.com 1.10,2015-08-01 08:32:00,
2015-08-01 04:47:00,69.9,62.0,29.91,WSW,249,0.0,1.0,76,0.00,,,0.00,weatherlink.com 1.10,2015-08-01 08:47:00,
2015-08-01 05:02:00,69.6,62.0,29.91,WSW,249,0.0,1.0,76,0.00,,,0.00,weatherlink.com 1.10,2015-08-01 09:02:00,
2015-08-01 05:17:00,69.1,62.0,29.91,WSW,249,0.0,0.0,78,0.00,,,0.00,weatherlink.com 1.10,2015-08-01 09:17:00,
2015-08-01 05:32:00,68.0,62.0,29.91,WSW,249,0.0,1.0,80,0.00,,,0.00,weatherlink.com 1.10,2015-08-01 09:32:00,
2015-08-01 05:47:00,67.4,62.0,29.91,WSW,249,0.0,1.0,82,0.00,,,0.00,weatherlink.com 1.10,2015-08-01 09:47:00,